Garden City, KS

9:25 PM CDT on October 18, 2019 (GMT -0500)
Garden City Regional

Weather History for KGCK - September, 2019

Change the Weather History Date:

Tuesday, September 17, 2019

  Actual Average Record
Temperature  
Mean Temperature 80 °F 68 °F  
Max Temperature 93 °F 82 °F 101 °F (1983)
Min Temperature 66 °F 54 °F 38 °F (1981)
Degree Days  
Heating Degree Days 0 2  
Month to date heating degree days 0 18  
Since 1 July heating degree days 0 22  
Cooling Degree Days 15 5  
Month to date cooling degree days 220 119  
Year to date cooling degree days 1298 1235  
Growing Degree Days 30 (Base 50)    
Moisture  
Dew Point 58 °F    
Average Humidity 52    
Maximum Humidity 81    
Minimum Humidity 27    
Precipitation  
Precipitation 0.00 in 0.05 in 1.05 in (2007)
Month to date precipitation 0.24 0.89  
Year to date precipitation 12.24 16.54  
Sea Level Pressure  
Sea Level Pressure 29.81 in    
Wind  
Wind Speed 16 mph ()    
Max Wind Speed 33 mph    
Max Gust Speed 46 mph    
Visibility 10.0 miles    
Events      
T = Trace of Precipitation, MM = Missing Value Source: Averaged Metar Reports

Daily Weather History Graph

Daily Weather History Graph

Search for Another Location

Airport or City:

Astronomy

Sep. 17, 2019 Rise Set
Actual Time 7:26 AM CDT 7:47 PM CDT
Civil Twilight 6:59 AM CDT 8:14 PM CDT
Nautical Twilight 6:28 AM CDT 8:45 PM CDT
Astronomical Twilight 5:57 AM CDT 9:16 PM CDT
Moon 9:55 PM CDT (9/17) 10:29 AM CDT (9/17)
Length of Visible Light 13h 14m
Length of Day
12h 21m
Waning Gibbous, 89% of the Moon is Illuminated
Sep 17
Waning Gibbous
Sep 21
Last Quarter
Sep 28
New
Oct 5
First Quarter
Oct 13
Full

Hourly Weather History & Observations

Time (CDT) Temp. Heat Index Dew Point Humidity Pressure Visibility Wind Dir Wind Speed Gust Speed Precip Events Conditions
12:54 AM 73.9 °F - 57.9 °F 57% 29.86 in 10.0 mi South 13.8 mph - N/A   Clear
1:54 AM 73.9 °F - 60.1 °F 62% 29.86 in 10.0 mi South 17.3 mph 29.9 mph N/A   Clear
2:54 AM 72.0 °F - 60.1 °F 66% 29.85 in 10.0 mi South 17.3 mph - N/A   Clear
3:54 AM 71.1 °F - 60.1 °F 68% 29.85 in 10.0 mi South 10.4 mph - N/A   Clear
4:54 AM 69.1 °F - 61.0 °F 75% 29.84 in 10.0 mi SSE 11.5 mph - N/A   Clear
5:54 AM 68.0 °F - 61.0 °F 78% 29.84 in 10.0 mi SSE 12.7 mph - N/A   Clear
6:54 AM 66.9 °F - 61.0 °F 81% 29.85 in 10.0 mi SSE 13.8 mph - N/A   Clear
7:54 AM 66.9 °F - 61.0 °F 81% 29.87 in 10.0 mi South 15.0 mph 25.3 mph N/A   Clear
8:54 AM 72.0 °F - 61.0 °F 68% 29.86 in 10.0 mi South 20.7 mph 27.6 mph N/A   Clear
9:54 AM 77.0 °F - 60.1 °F 56% 29.85 in 10.0 mi South 26.5 mph 35.7 mph N/A   Clear
11:54 AM 86.0 °F 85.0 °F 57.9 °F 38% 29.83 in 10.0 mi SSW 25.3 mph 38.0 mph N/A   Scattered Clouds
12:54 PM 90.0 °F 88.6 °F 57.0 °F 33% 29.81 in 10.0 mi South 27.6 mph 44.9 mph N/A   Clear
1:54 PM 91.9 °F 90.3 °F 55.9 °F 30% 29.78 in 10.0 mi South 29.9 mph 41.4 mph N/A   Clear
2:54 PM 91.9 °F 90.3 °F 55.9 °F 30% 29.77 in 10.0 mi South 29.9 mph 41.4 mph N/A   Clear
3:54 PM 91.9 °F 89.5 °F 54.0 °F 27% 29.75 in 10.0 mi SSW 29.9 mph 40.3 mph N/A   Partly Cloudy
4:54 PM 91.9 °F 90.3 °F 55.9 °F 30% 29.74 in 10.0 mi South 23.0 mph 39.1 mph N/A   Clear
5:54 PM 91.0 °F 88.9 °F 55.0 °F 29% 29.74 in 10.0 mi South 25.3 mph 38.0 mph N/A   Clear
6:54 PM 87.1 °F 85.9 °F 57.0 °F 36% 29.75 in 10.0 mi South 16.1 mph 28.8 mph N/A   Clear
7:54 PM 82.9 °F 82.4 °F 57.0 °F 41% 29.77 in 10.0 mi SSE 16.1 mph 27.6 mph N/A   Clear
8:54 PM 81.0 °F 81.0 °F 57.0 °F 44% 29.78 in 10.0 mi SSE 16.1 mph 25.3 mph N/A   Clear
9:54 PM 78.1 °F - 57.9 °F 50% 29.79 in 10.0 mi SSE 13.8 mph - N/A   Clear
10:54 PM 75.0 °F - 59.0 °F 57% 29.80 in 10.0 mi SSE 15.0 mph - N/A   Clear
11:54 PM 73.9 °F - 60.1 °F 62% 29.80 in 10.0 mi SSE 13.8 mph - N/A   Clear